Radiation Dose at Monitoring Post of Fukushima Daini Nuclear Power Station
Date,Time,MP-1(microSv/h),MP-2(microSv/h),MP-3(microSv/h),MP-4(microSv/h),MP-5(microSv/h),MP-6(microSv/h),MP-7(microSv/h),Wind Direction,Wind Velocity(m/s),Rain
2019/05/08,00:00,0.194,0.182,0.296,0.278,0.270,0.149,0.090,northwest,3.7,No
2019/05/08,00:10,0.194,0.183,0.295,0.276,0.270,0.147,0.091,northwest,3.6,No
2019/05/08,00:20,0.197,0.183,0.295,0.275,0.270,0.148,0.090,west-northwest,2.9,No
2019/05/08,00:30,0.194,0.183,0.295,0.276,0.270,0.148,0.090,west,4.0,No
2019/05/08,00:40,0.194,0.183,0.296,0.276,0.271,0.149,0.091,northwest,1.9,No
2019/05/08,00:50,0.194,0.184,0.295,0.275,0.271,0.148,0.089,west-southwest,1.3,No
2019/05/08,01:00,0.194,0.182,0.296,0.276,0.270,0.148,0.090,northwest,2.8,No
2019/05/08,01:10,0.194,0.182,0.294,0.276,0.270,0.148,0.091,west-northwest,1.8,No
2019/05/08,01:20,0.194,0.183,0.297,0.275,0.270,0.149,0.090,west,3.4,No
2019/05/08,01:30,0.194,0.184,0.296,0.275,0.271,0.148,0.091,west,3.8,No
2019/05/08,01:40,0.194,0.182,0.293,0.275,0.270,0.149,0.091,west,4.2,No
2019/05/08,01:50,0.195,0.183,0.296,0.275,0.269,0.148,0.090,west,6.7,No
2019/05/08,02:00,0.195,0.182,0.295,0.276,0.270,0.149,0.090,west-northwest,5.1,No
2019/05/08,02:10,0.195,0.182,0.294,0.276,0.272,0.148,0.090,west,3.8,No
2019/05/08,02:20,0.195,0.183,0.297,0.276,0.269,0.148,0.090,west-northwest,3.3,No
2019/05/08,02:30,0.193,0.183,0.296,0.275,0.271,0.149,0.090,west-northwest,4.5,No
2019/05/08,02:40,0.195,0.183,0.295,0.277,0.271,0.148,0.090,west,4.8,No
2019/05/08,02:50,0.194,0.182,0.297,0.276,0.269,0.147,0.090,west-northwest,3.2,No
2019/05/08,03:00,0.194,0.183,0.295,0.275,0.271,0.148,0.089,west-southwest,2.0,No
2019/05/08,03:10,0.194,0.182,0.294,0.275,0.271,0.148,0.091,west-northwest,3.3,No
2019/05/08,03:20,0.195,0.182,0.296,0.276,0.269,0.148,0.090,northwest,2.1,No
2019/05/08,03:30,0.193,0.182,0.296,0.276,0.271,0.148,0.090,northwest,2.0,No
2019/05/08,03:40,0.194,0.183,0.296,0.276,0.271,0.148,0.092,northeast,0.8,No
2019/05/08,03:50,0.194,0.181,0.297,0.276,0.269,0.147,0.090,east-northeast,2.8,No
2019/05/08,04:00,0.196,0.183,0.295,0.275,0.270,0.147,0.090,south-southeast,1.5,No
2019/05/08,04:10,0.195,0.183,0.294,0.275,0.270,0.147,0.091,south-southwest,1.0,No
2019/05/08,04:20,0.195,0.183,0.297,0.278,0.269,0.147,0.090,north-northeast,2.9,No
2019/05/08,04:30,0.194,0.183,0.297,0.275,0.271,0.148,0.090,-,CALM,No
2019/05/08,04:40,0.194,0.182,0.294,0.276,0.269,0.148,0.090,north-northeast,1.3,No
2019/05/08,04:50,0.194,0.182,0.296,0.276,0.269,0.148,0.090,northwest,3.2,No
2019/05/08,05:00,0.193,0.182,0.296,0.277,0.271,0.148,0.091,west-northwest,3.7,No
2019/05/08,05:10,0.194,0.184,0.295,0.276,0.269,0.148,0.090,west,1.8,No
2019/05/08,05:20,0.194,0.182,0.294,0.275,0.269,0.148,0.090,-,CALM,No
2019/05/08,05:30,0.195,0.182,0.296,0.276,0.269,0.148,0.090,southwest,1.4,No
2019/05/08,05:40,0.194,0.182,0.295,0.275,0.270,0.148,0.090,west,1.3,No
2019/05/08,05:50,0.195,0.183,0.294,0.276,0.270,0.148,0.089,west,1.1,No
2019/05/08,06:00,0.193,0.182,0.296,0.275,0.268,0.148,0.090,east-southeast,2.3,No
2019/05/08,06:10,0.193,0.183,0.295,0.275,0.271,0.148,0.090,southwest,0.9,No
2019/05/08,06:20,0.195,0.183,0.296,0.277,0.269,0.149,0.089,north-northeast,0.8,No
2019/05/08,06:30,0.194,0.183,0.295,0.276,0.269,0.149,0.091,southeast,2.3,No
2019/05/08,06:40,0.194,0.182,0.294,0.275,0.272,0.149,0.090,southeast,2.0,No
2019/05/08,06:50,0.195,0.182,0.296,0.276,0.270,0.149,0.090,-,CALM,No
2019/05/08,07:00,0.194,0.183,0.294,0.274,0.272,0.148,0.090,-,CALM,No
2019/05/08,07:10,0.195,0.181,0.294,0.276,0.270,0.149,0.090,east-southeast,0.6,No
2019/05/08,07:20,0.194,0.181,0.292,0.273,0.271,0.148,0.090,east,0.8,No
2019/05/08,07:30,0.195,0.181,0.294,0.275,0.271,0.148,0.090,southeast,3.4,No
2019/05/08,07:40,0.193,0.181,0.292,0.275,0.270,0.147,0.090,south,2.9,No
2019/05/08,07:50,0.195,0.182,0.295,0.272,0.271,0.148,0.091,south-southeast,3.3,No
2019/05/08,08:00,0.194,0.183,0.295,0.275,0.270,0.148,0.089,south-southeast,3.0,No
2019/05/08,08:10,0.195,0.183,0.297,0.274,0.270,0.147,0.090,southeast,3.4,No
2019/05/08,08:20,0.193,0.181,0.294,0.272,0.270,0.147,0.090,south-southeast,3.0,No
2019/05/08,08:30,0.194,0.183,0.297,0.278,0.268,0.148,0.090,south-southeast,2.8,No
2019/05/08,08:40,0.194,0.181,0.296,0.275,0.274,0.147,0.091,south-southeast,4.4,No
2019/05/08,08:50,0.193,0.182,0.297,0.273,0.268,0.148,0.090,south-southeast,6.2,No
2019/05/08,09:00,0.194,0.184,0.295,0.276,0.271,0.148,0.091,south-southeast,6.4,No
2019/05/08,09:10,0.195,0.182,0.296,0.277,0.270,0.148,0.090,south-southeast,5.9,No
2019/05/08,09:20,0.193,0.182,0.295,0.275,0.268,0.148,0.091,south-southeast,6.0,No
2019/05/08,09:30,0.194,0.182,0.295,0.275,0.272,0.148,0.091,south,4.8,No
2019/05/08,09:40,0.194,0.182,0.295,0.278,0.270,0.148,0.090,south,6.4,No
2019/05/08,09:50,0.193,0.184,0.297,0.276,0.270,0.149,0.091,south-southeast,4.6,No
2019/05/08,10:00,0.196,0.181,0.296,0.275,0.272,0.148,0.092,south-southeast,4.0,No
2019/05/08,10:10,0.193,0.182,0.297,0.272,0.270,0.147,0.090,south-southeast,3.2,No
2019/05/08,10:20,0.192,0.183,0.295,0.273,0.269,0.147,0.091,west,3.7,No
2019/05/08,10:30,0.193,0.182,0.293,0.273,0.269,0.148,0.091,southwest,2.6,No
2019/05/08,10:40,0.196,0.181,0.291,0.273,0.272,0.150,0.091,south,7.9,No
2019/05/08,10:50,0.195,0.182,0.296,0.277,0.271,0.148,0.090,south-southeast,8.5,No
2019/05/08,11:00,0.193,0.183,0.295,0.279,0.269,0.147,0.091,south-southeast,9.3,No
2019/05/08,11:10,0.192,0.182,0.293,0.276,0.272,0.149,0.090,south-southeast,8.1,No
2019/05/08,11:20,0.195,0.182,0.293,0.274,0.272,0.149,0.091,south-southeast,10.1,No
2019/05/08,11:30,0.194,0.184,0.297,0.279,0.271,0.148,0.091,south-southeast,11.1,No
2019/05/08,11:40,0.194,0.182,0.296,0.278,0.269,0.149,0.090,south-southeast,11.3,No
2019/05/08,11:50,0.194,0.183,0.295,0.277,0.272,0.148,0.091,south-southeast,11.0,No
2019/05/08,12:00,0.195,0.184,0.294,0.277,0.270,0.149,0.092,south,11.2,No
2019/05/08,12:10,0.194,0.182,0.298,0.278,0.271,0.149,0.091,south,10.3,No
2019/05/08,12:20,0.194,0.184,0.297,0.275,0.273,0.149,0.092,south,10.7,No
2019/05/08,12:30,0.195,0.184,0.294,0.275,0.269,0.150,0.090,south,10.1,No
2019/05/08,12:40,0.194,0.183,0.294,0.280,0.270,0.149,0.091,south,9.8,No
2019/05/08,12:50,0.193,0.185,0.298,0.278,0.275,0.148,0.091,south,10.9,No
2019/05/08,13:00,0.195,0.183,0.298,0.276,0.271,0.149,0.090,south,9.0,No
2019/05/08,13:10,0.195,0.182,0.295,0.279,0.269,0.150,0.091,south,8.9,No
2019/05/08,13:20,0.194,0.184,0.295,0.279,0.270,0.148,0.091,south-southeast,10.1,No
2019/05/08,13:30,0.192,0.184,0.294,0.277,0.273,0.149,0.090,south,10.6,No
2019/05/08,13:40,0.196,0.183,0.296,0.275,0.271,0.149,0.092,south-southeast,9.6,No
2019/05/08,13:50,0.195,0.184,0.297,0.278,0.271,0.148,0.091,south,9.2,No
2019/05/08,14:00,0.193,0.182,0.296,0.278,0.274,0.149,0.091,south-southeast,8.4,No
2019/05/08,14:10,0.195,0.184,0.295,0.276,0.271,0.149,0.091,south,7.8,No
2019/05/08,14:20,0.196,0.183,0.294,0.279,0.270,0.149,0.092,south,8.7,No
2019/05/08,14:30,0.195,0.183,0.299,0.279,0.274,0.150,0.091,south,9.3,No
2019/05/08,14:40,0.194,0.185,0.297,0.278,0.273,0.149,0.091,south,8.8,No
2019/05/08,14:50,0.196,0.183,0.296,0.279,0.271,0.150,0.092,south,8.6,No
2019/05/08,15:00,0.195,0.185,0.295,0.279,0.269,0.150,0.091,south,9.3,No
2019/05/08,15:10,0.195,0.184,0.294,0.277,0.271,0.150,0.091,south,10.6,No
2019/05/08,15:20,0.194,0.184,0.298,0.282,0.274,0.149,0.092,south,10.7,No
2019/05/08,15:30,0.197,0.184,0.298,0.278,0.271,0.149,0.091,south,9.5,No
2019/05/08,15:40,0.197,0.185,0.294,0.280,0.270,0.149,0.092,south,9.5,No
2019/05/08,15:50,0.195,0.183,0.300,0.280,0.269,0.150,0.091,south,9.3,No
2019/05/08,16:00,0.193,0.184,0.299,0.278,0.273,0.148,0.091,south,9.6,No
2019/05/08,16:10,0.197,0.185,0.299,0.280,0.272,0.149,0.091,south,9.8,No
2019/05/08,16:20,0.196,0.184,0.299,0.277,0.271,0.150,0.092,south,9.6,No
2019/05/08,16:30,0.195,0.185,0.298,0.279,0.269,0.149,0.092,south,9.3,No
2019/05/08,16:40,0.196,0.184,0.300,0.279,0.273,0.149,0.091,south,9.2,No
2019/05/08,16:50,0.197,0.185,0.297,0.279,0.273,0.150,0.091,south,9.2,No
2019/05/08,17:00,0.195,0.185,0.300,0.278,0.270,0.149,0.092,south,8.9,No
2019/05/08,17:10,0.196,0.186,0.298,0.280,0.273,0.149,0.091,south,8.7,No
2019/05/08,17:20,0.195,0.184,0.300,0.279,0.271,0.149,0.091,south,8.7,No
2019/05/08,17:30,0.198,0.185,0.298,0.280,0.272,0.150,0.092,south,7.3,No
2019/05/08,17:40,0.196,0.185,0.300,0.279,0.274,0.149,0.091,south,7.7,No
2019/05/08,17:50,0.196,0.184,0.297,0.280,0.272,0.151,0.090,south,7.5,No
2019/05/08,18:00,0.195,0.185,0.298,0.278,0.275,0.149,0.091,south,7.4,No
2019/05/08,18:10,0.196,0.184,0.297,0.280,0.272,0.150,0.091,south,8.4,No
2019/05/08,18:20,0.195,0.185,0.300,0.278,0.275,0.150,0.092,south-southwest,8.4,No
2019/05/08,18:30,0.197,0.185,0.297,0.280,0.273,0.150,0.092,south-southwest,9.3,No
2019/05/08,18:40,0.196,0.185,0.300,0.279,0.275,0.150,0.092,south-southwest,8.4,No
2019/05/08,18:50,0.196,0.185,0.298,0.279,0.272,0.150,0.092,south-southwest,8.2,No
2019/05/08,19:00,0.195,0.185,0.299,0.279,0.275,0.150,0.091,south-southwest,9.0,No
2019/05/08,19:10,0.196,0.186,0.298,0.280,0.272,0.150,0.091,south-southwest,7.0,No
2019/05/08,19:20,0.196,0.185,0.299,0.279,0.274,0.150,0.092,south-southwest,7.0,No
2019/05/08,19:30,0.196,0.185,0.297,0.280,0.272,0.149,0.091,south-southwest,6.6,No
2019/05/08,19:40,0.195,0.185,0.299,0.280,0.273,0.150,0.092,south-southwest,6.0,No
2019/05/08,19:50,0.197,0.184,0.299,0.279,0.272,0.151,0.092,south-southwest,5.3,No
2019/05/08,20:00,0.196,0.185,0.299,0.281,0.274,0.150,0.091,south-southwest,6.0,No
2019/05/08,20:10,0.197,0.185,0.300,0.279,0.273,0.150,0.092,southwest,7.3,No
2019/05/08,20:20,0.195,0.186,0.299,0.281,0.273,0.150,0.091,southwest,7.4,No
2019/05/08,20:30,0.197,0.185,0.300,0.280,0.274,0.149,0.091,southwest,8.1,No
2019/05/08,20:40,0.196,0.185,0.300,0.280,0.272,0.149,0.092,west-southwest,7.6,No
2019/05/08,20:50,0.197,0.185,0.299,0.281,0.272,0.149,0.092,west-southwest,7.8,No
2019/05/08,21:00,0.196,0.186,0.297,0.280,0.272,0.150,0.092,west-southwest,7.3,No
2019/05/08,21:10,0.196,0.185,0.299,0.280,0.274,0.150,0.091,west-southwest,6.6,No
2019/05/08,21:20,0.197,0.184,0.298,0.279,0.273,0.149,0.092,west-southwest,6.8,No
2019/05/08,21:30,0.195,0.184,0.300,0.281,0.273,0.152,0.092,west-southwest,6.6,No
2019/05/08,21:40,0.197,0.185,0.299,0.278,0.272,0.150,0.091,southwest,3.7,No
2019/05/08,21:50,0.196,0.185,0.299,0.280,0.271,0.150,0.092,southwest,5.1,No
2019/05/08,22:00,0.197,0.184,0.300,0.280,0.274,0.150,0.092,south-southwest,5.5,No
2019/05/08,22:10,0.197,0.186,0.298,0.279,0.273,0.150,0.092,south-southwest,6.2,No
2019/05/08,22:20,0.197,0.185,0.300,0.281,0.274,0.149,0.092,south-southwest,6.7,No
2019/05/08,22:30,0.197,0.185,0.299,0.280,0.272,0.151,0.091,south-southwest,6.0,No
2019/05/08,22:40,0.195,0.186,0.299,0.281,0.273,0.150,0.091,south-southwest,7.0,No
2019/05/08,22:50,0.197,0.184,0.299,0.279,0.273,0.149,0.092,southwest,7.1,No
2019/05/08,23:00,0.197,0.185,0.298,0.279,0.271,0.150,0.091,southwest,7.0,No
2019/05/08,23:10,0.196,0.185,0.300,0.281,0.274,0.150,0.091,southwest,7.1,No
2019/05/08,23:20,0.197,0.184,0.298,0.278,0.271,0.150,0.092,west-southwest,6.4,No
2019/05/08,23:30,0.196,0.184,0.300,0.280,0.273,0.150,0.092,southwest,7.0,No
2019/05/08,23:40,0.196,0.185,0.299,0.279,0.272,0.150,0.092,southwest,6.2,No
2019/05/08,23:50,0.197,0.185,0.300,0.281,0.274,0.150,0.092,south-southwest,5.6,No
